DECAYED

OBJECT M, 43842 (Decayed)

Orbit data source: Space-Track

You're viewing an Uncataloged Satellite

Recently launched and/or uncataloged satellites may have evolving metadata. Metadata may include but not limited to: Owner, Maufacturer, Bus, Motor, and Mission.

OBJECT M, 43842 was a satellite in LEO that was launched on Fri, 07 Dec 2018 UTC via a CHANG ZHENG 2D launch vehicle from the Jiuquan Satellite Launch Center, China (JSC). Unknown objects in Earth's orbit typically refer to objects detected orbiting the Earth but have not yet been identified or cataloged. These objects could be anything from previously untracked satellites, spent rocket stages, debris from satellite collisions, or even natural meteoroids temporarily captured by Earth's gravity. This object's orbit decayed before it could be identified.

Not visible in the next 10 days
OBJECT M details
Identifier
43842, 2018-102M
Orbit
Decayed
Last TLE update8 months ago
Origin
Flag of TBDWEINA/JIUT (TBD)
ManufacturerJiutian
MissionDecayed Commercial Imaging
Bus & MotorCUBESAT 6U, Unknown motor
Mass10 kg wet, 10 kg dry
Launch date (UTC)
2018-12-07 (6 years ago)
Launch vehicle
CHANG ZHENG 2D
Launch site
Jiuquan Satellite Launch Center, China (JSC)
Object typeUnknown
Shape & HBRBox, 0.3 m
Radar Cross Section0.035 m², Small (<0.1 m²)

Expand to show TLE details & history

TLE from 8 months ago
0 OBJECT M
1 43842U 18102M   24098.00985094  .05637639  24421-5  19269-2 0  9997
2 43842  97.3616 182.9771 0013616 274.1833  85.7903 16.25270801295500
Epoch: 2024-04-07T00:14Z
Definitive object data (Epoch: 2024-04-07T00:14:11.121Z)
Latitude0.00004°
Longitude-16.33938°
Altitude207.867 km
Speed7.782 km/s
True Right ascension12h 11m 54s
True Declination0° 00' 00"
Sunlit
Object was in full shadow at TLE epoch
Visualization observer readout
Observer readout values are unavailable because the object's trajectory could not be propagated. This is usually caused when the trajectory data is faulty or the object's orbit has decayed.
Visualization observer readout
Observer readout values are unavailable because the object's trajectory could not be propagated. This is usually caused when the trajectory data is faulty or the object's orbit has decayed.
Orbital elements
Apogee altitude211.065 km
Perigee altitude193.145 km
Semi-major axis6,580.242 km
Eccentricity0.0013616
Inclination97.3616°
RAAN182.9771°
Arg. of periapsis274.1833°
True anomaly85.94593°
Mean anomaly85.7903°
Eccentric anomaly85.86811°
Mean motion4.06612 °/min
BSTAR0.0019269
Orbital period88.54 mins
Loading maneuver chart data...
Loading historical data...
Loading historical data...
Loading historical data...
Loading historical data...
Loading historical data...
Loading historical data...
Loading historical data...

OBJECT M Visibility forecast

Observer location: undefined°, undefined

This satellite is decayed
Span
Click to sort rows by Start time (UTC) header in descending order
Start Az.
Max El. time (UTC)
Max El. Az.
Max El.
End time (UTC)
End Az.
|